Hourly Data Report for September 03, 2012

HALIFAX STANFIELD INT'L A
NOVA SCOTIA

44°52'48.060" N
63°30'00.050" W
145.40 m
8202250
71395
YHZ

Download Data

Hourly Data (September 2012)
Hourly Data Report for September 3, 2012
TIME
LST
Temp Definition
°C
Dew Point Definition
°C
Rel Hum Definition
%
Precip. Amount Definition
mm

Wind Dir Definition
10's deg

Wind Spd Definition
km/h
Visibility Definition
km
Stn Press Definition
kPa
Hmdx Definition


Wind Chill Definition


Weather Definition


00:00 10.8 10.4 97   17 4 24.1 100.55     Mainly Clear
01:00 11.0 9.0 87   10 4 24.1 100.53     Mainly Clear
02:00 10.1 8.7 91     0 24.1 100.52     Mainly Clear
03:00 9.2 8.5 95   2 4 24.1 100.54     Mainly Clear
04:00 9.1 8.4 95   36 4 24.1 100.56     Clear
05:00 9.3 8.8 97   3 4 24.1 100.55     Mainly Clear
06:00 10.4 9.1 92   11 4 24.1 100.56     Mainly Clear
07:00 11.9 10.7 92   1 2 24.1 100.59     Mainly Clear
08:00 13.1 10.5 84   34 6 24.1 100.60     Mainly Clear
09:00 16.0 10.8 71   35 4 24.1 100.63     Mainly Clear
10:00 17.6 9.8 60   31 11 24.1 100.61     Mainly Clear
11:00 18.6 10.0 57   30 9 24.1 100.55     Mainly Clear
12:00 19.4 9.9 54   33 4 24.1 100.53     Mostly Cloudy
13:00 20.4 11.4 56   2 4 24.1 100.49     Mainly Clear
14:00 21.0 11.3 54   2 7 24.1 100.43     Mostly Cloudy
15:00 20.3 10.8 54   8 7 24.1 100.42     Mostly Cloudy
16:00 18.8 11.6 63   16 13 24.1 100.40     Mostly Cloudy
17:00 18.1 11.2 64   17 15 24.1 100.40     Mostly Cloudy
18:00 16.9 10.9 68   18 11 24.1 100.38     Mostly Cloudy
19:00 15.4 10.1 71   22 11 24.1 100.39     Mostly Cloudy
20:00 15.3 9.4 68   24 17 24.1 100.43     Mostly Cloudy
21:00 14.9 10.9 77   23 13 24.1 100.44     Mostly Cloudy
22:00 14.2 11.1 82   24 13 24.1 100.43     Mainly Clear
23:00 13.7 11.0 84   26 13 24.1 100.38     Mainly Clear

Notes on Data Quality.

Legend

  • E = Estimated
  • M = Missing
  • NA = Not Available*
  • [empty] = Indicates an unobserved value
Date modified: